Weather in Streltsy

Russia / Kurgan Oblast     54°58′03″N   67°43′40″E
temp.,
°C
wind,
m/s
gust,
m/s
humid.,
%
clouds,
%
prec.,
mm/h
press.,
hPa
HPBL,
m
28 september, tue
tue2823:00+4e81570100 0.0 1021740
02:00+4e81476100 0.0 1020866
05:00+4e91476100 0.1 1019900
08:00+4e91575100 0.4 10181022
11:00+6e91560100 0.4 10171319
14:00+8ene91548100 0.1 10151711
17:00+7ene81453100 0.1 10161677
20:00+7ene71251100 0.0 10161231
29 september, wed
wed2923:00+5ne71260100 0.0 1016698
02:00+4ne61277100 0.0 1016505
05:00+4ne61275100 0.0 1017485
08:00+4nne5117270 0.0 1018491
11:00+8ne685382 0.1 10181618
14:00+8nne6748100 0.1 10191473
17:00+8nne675398 0.2 10201290
20:00+4n376894 0.0 1021139
30 september, thu
thu3023:00+3n346864 0.0 102250
02:00+2n378430 0.0 1022125
05:00+1nnw379466 0.0 1023172
08:00+2nnw368552 0.0 1024274
11:00+7n455581 0.0 10231320
14:00+8nnw4546100 0.1 10231733
17:00+8nw3546100 0.1 10231288
20:00+4nw35575 0.0 102382
1 october, fri
fri123:00+3wnw34635 0.0 102353
02:00+1w36658 0.0 102396
05:000w4967100 0.0 1022155
08:00+2w41071100 0.0 1022307
11:00+6wnw5766100 0.0 1023811
14:00+5nw5690100 0.1 1023851
17:00+4nnw3691100 0.3 1024620
20:00+5n3665100 0.1 1026293
2 october, sat
sat223:00+1nne36755 0.1 102891
02:00−1ne33845 0.0 102942
05:00−2nne22875 0.0 103012
08:000nnw117519 0.0 103163
11:00+5w115394 0.0 1032794
14:00+7w33435 0.0 10311162
17:00+7w3543100 0.0 1030510
20:00+4wsw3457100 0.0 103142